This demonstration page uses our WeatherBlox Daily Observations layout. Learn more.

Left ArrowRight Arrow

Hourly Observations for December 9, 2019

Temp ( °F °C ) Dew Point ( °F °C ) Humidity (%) Winds ( mph kmh ) Pressure ( in mb ) Visibility ( mi km ) Precip ( " mm )
12:56 am 00:56 Mostly Cloudy 37 2.8 33 0.6 86 86 NW 13 20 29.60 1002 10 16 0.00 0.00
1:56 am 01:56 Mostly Cloudy with Light Rain 37 2.8 32 0 82 82 NNW 30 48 29.67 1005 10 16 0.00 0.00
2:06 am 02:06 Mostly Cloudy with Light Rain 36 2 30 -1 81 81 N 31 50 29.75 1008 10 16 0.00 0.00
2:56 am 02:56 Mostly Cloudy 29 -1.7 23 -5 78 78 N 35 56 29.75 1007 10 16 0.00 0.00
3:11 am 03:11 Mostly Cloudy 27 -3 21 -6 80 80 N 28 44 29.86 1011 10 16 0.00 0.00
3:25 am 03:25 Partly Cloudy 27 -3 19 -7 74 74 N 31 50 29.87 1011 10 16 0.00 0.00
3:45 am 03:45 Mostly Cloudy 25 -4 19 -7 80 80 NNW 31 50 29.89 1012 10 16 0.00 0.00
3:52 am 03:52 Mostly Cloudy 25 -4 18 -8 74 74 N 31 50 29.89 1012 10 16 0.00 0.00
3:56 am 03:56 Cloudy 24 -4.4 18 -7.8 77 77 N 32 52 29.79 1009 10 16 0.00 0.00
4:42 am 04:42 Windy with Snow Likely 21 -6 18 -8 86 86 N 25 41 29.94 1014 3 4 0.00 0.00
4:56 am 04:56 Windy with Snow Likely 21 -6.1 18 -7.8 88 88 N 24 39 29.85 1011 3 4 0.00 0.00
5:11 am 05:11 Windy with Snow Likely 21 -6 18 -8 86 86 NNW 25 41 29.97 1015 2 3 0.00 0.00
5:17 am 05:17 Windy with Snow Likely 19 -7 16 -9 86 86 NNW 32 52 29.98 1015 1 1 0.00 0.00
5:27 am 05:27 Windy with Snow Likely 19 -7 16 -9 86 86 NNW 28 44 30.01 1016 1 2 0.00 0.00
5:47 am 05:47 Windy with Snow Likely 19 -7 14 -10 79 79 NNW 23 37 30.01 1016 3 5 0.00 0.00
5:56 am 05:56 Partly Cloudy with Scattered Snow Showers 19 -7.2 11 -11.7 71 71 NNW 31 50 29.91 1013 9 14 0.00 0.00
6:56 am 06:56 Clear 16 -8.9 9 -12.8 74 74 NNW 22 35 29.95 1014 10 16 0.00 0.00
7:56 am 07:56 Sunny 14 -10 7 -13.9 73 73 NNW 21 33 30.00 1016 10 16 0.00 0.00
8:56 am 08:56 Sunny 15 -9.4 7 -13.9 70 70 NNW 23 37 30.02 1017 10 16 0.00 0.00
9:56 am 09:56 Sunny 16 -8.9 8 -13.3 71 71 NNW 25 41 30.05 1018 10 16 0.00 0.00
10:56 am 10:56 Sunny 17 -8.3 8 -13.3 68 68 NNW 26 43 30.08 1019 10 16 0.00 0.00
11:56 am 11:56 Sunny 20 -6.7 10 -12.2 65 65 NNW 21 33 30.06 1018 10 16 0.00 0.00
12:56 pm 12:56 Sunny 22 -5.6 12 -11.1 66 66 NNW 16 26 30.06 1018 10 16 0.00 0.00
1:56 pm 13:56 Sunny 25 -3.9 13 -10.6 60 60 NW 23 37 30.04 1017 10 16 0.00 0.00
2:56 pm 14:56 Sunny 26 -3.3 13 -10.6 57 57 NNW 17 28 30.06 1018 10 16 0.00 0.00
3:56 pm 15:56 Sunny 27 -2.8 12 -11.1 53 53 NW 13 20 30.08 1019 10 16 0.00 0.00
4:56 pm 16:56 Sunny 27 -2.8 13 -10.6 55 55 NW 9 15 30.08 1019 10 16 0.00 0.00
5:56 pm 17:56 Clear 25 -3.9 13 -10.6 60 60 W 5 7 30.11 1020 10 16 0.00 0.00
6:56 pm 18:56 Clear 24 -4.4 13 -10.6 62 62 WSW 6 9 30.11 1020 10 16 0.00 0.00
7:56 pm 19:56 Clear 24 -4.4 14 -10 65 65 WSW 8 13 30.11 1020 10 16 0.00 0.00
8:56 pm 20:56 Clear 25 -3.9 14 -10 63 63 WSW 9 15 30.12 1020 10 16 0.00 0.00
9:56 pm 21:56 Clear 24 -4.4 14 -10 65 65 WSW 10 17 30.12 1020 10 16 0.00 0.00
10:56 pm 22:56 Clear 23 -5 15 -9.4 72 72 WSW 8 13 30.13 1020 10 16 0.00 0.00
11:56 pm 23:56 Clear 23 -5 16 -8.9 74 74 WSW 6 9 30.13 1020 10 16 0.00 0.00

Powered by AerisWeather